RH
6 9 12 17 21 29 30 29 27 30 36 31 25 24 23 28 35 27 15 17 20 19 15 15 17 19 21 23 23 23 23 23 24 23 23 24 27 29 30 32 33 34 33 32 31 31 29 28 30
7 12 16 18 26 33 32 28 27 27 31 27 26 27 22 21 19 16 16 17 18 19 17 14 15 18 20 22 23 23 24 24 25 25 23 25 27 29 30 32 35 37 37 37 40 38 39 34 33
9 13 17 23 31 28 27 29 29 30 34 33 31 27 28 23 20 17 16 17 18 18 16 13 15 17 19 22 23 24 24 25 25 26 25 27 28 29 30 32 36 40 41 43 43 45 45 47 43
9 11 15 26 28 24 23 30 31 32 35 34 31 30 29 26 24 23 19 16 17 18 17 15 15 17 20 21 23 25 27 27 28 28 27 28 30 30 32 33 38 41 43 46 50 53 54 53 54
9 10 14 21 27 22 21 27 30 33 32 32 32 29 26 25 22 22 21 18 18 18 18 17 16 17 20 22 23 25 28 28 29 30 30 30 31 33 34 36 37 38 41 46 50 56 60 63 63
9 10 13 16 20 19 21 26 31 31 33 33 33 31 29 23 22 23 22 20 20 21 19 17 17 19 20 22 25 27 29 31 33 31 31 31 32 34 36 37 38 42 46 50 52 57 63 67 67
9 10 12 12 15 16 17 21 27 28 28 30 33 34 30 27 23 21 21 22 22 22 20 18 19 20 22 23 24 28 31 33 36 35 33 32 33 36 39 39 41 45 47 47 48 52 57 67 71
9 10 10 11 13 16 16 17 19 23 26 31 28 29 26 23 20 21 22 22 22 22 21 19 20 21 23 24 27 30 34 39 40 39 36 35 37 41 43 44 44 49 48 47 49 55 55 61 68
10 10 10 9 12 14 16 16 17 17 18 17 21 20 18 17 17 18 19 18 19 21 21 21 22 23 24 25 28 33 37 43 45 43 40 38 42 43 45 46 44 48 50 50 53 57 61 60 67
10 10 9 9 11 13 13 14 14 16 14 17 16 15 15 13 13 13 13 13 16 19 21 23 25 27 26 26 28 33 39 45 47 46 42 43 43 44 45 45 44 48 49 54 53 58 58 58 65
10 9 9 10 11 11 12 13 14 14 13 14 13 15 15 13 12 12 12 13 15 19 23 24 28 32 34 33 32 36 40 45 47 46 44 44 43 44 44 44 43 44 46 51 54 54 54 54 60
9 9 9 9 10 11 11 13 13 12 12 11 12 12 12 12 13 13 13 14 17 19 23 28 33 40 43 42 41 40 40 43 47 46 45 42 44 44 43 43 43 46 48 51 54 53 53 50 57
10 9 9 9 10 11 11 10 11 11 11 11 11 11 11 11 13 15 17 17 19 21 26 33 38 42 46 47 40 37 38 43 47 45 43 43 44 46 45 45 46 48 50 49 49 45 44 46 52
11 12 11 11 11 10 10 10 10 9 9 9 10 11 11 13 14 17 18 18 20 25 29 35 40 43 46 45 39 34 39 44 45 44 45 46 47 49 48 47 46 46 49 48 45 41 43 47 50
12 13 12 11 12 11 10 11 10 8 8 8 9 10 12 14 15 16 18 22 27 28 29 36 41 45 45 42 37 33 38 40 43 45 47 48 52 55 49 48 48 46 47 45 37 39 43 48 54
14 14 14 10 11 11 12 11 8 7 9 10 10 12 13 15 16 16 19 24 27 29 29 35 40 45 44 38 36 38 38 37 43 48 50 50 52 50 49 49 49 47 43 40 35 36 38 42 48
18 17 15 12 10 11 12 11 8 8 12 13 12 14 16 16 16 17 21 27 30 30 31 34 38 43 42 38 38 41 39 40 43 47 51 51 49 49 50 51 49 45 42 35 35 36 35 40 41
17 18 15 13 10 12 13 12 8 10 14 16 15 16 18 18 17 21 25 28 31 32 33 35 38 40 39 38 42 41 40 41 42 47 53 51 52 51 51 50 47 46 41 36 36 37 35 36 40
16 18 16 14 12 15 15 16 12 15 17 17 17 18 19 19 19 22 24 28 32 34 33 33 35 36 37 37 41 41 44 45 45 46 48 50 50 50 50 47 49 44 38 35 35 34 36 38 40
19 20 20 16 14 18 17 18 16 18 17 17 18 19 20 20 20 24 28 33 35 34 31 30 32 34 37 41 44 48 50 49 47 44 47 50 49 48 45 46 45 39 35 33 33 35 37 36 36
20 21 19 18 16 18 20 23 21 20 18 17 17 18 21 20 20 25 30 34 37 36 33 26 29 33 41 46 47 49 50 50 47 43 45 48 48 45 45 45 38 34 34 35 36 35 35 38 37
19 16 16 18 19 26 20 24 22 21 18 20 18 18 22 21 22 26 31 36 38 36 35 29 28 36 40 45 47 47 49 46 40 40 45 48 46 45 46 40 33 32 31 31 33 34 34 32 29
14 16 18 19 22 27 29 35 26 18 22 18 18 19 20 21 22 26 30 37 38 37 35 30 31 37 40 43 43 47 43 38 39 42 45 45 45 47 44 34 32 31 32 32 35 30 25 22 21
16 24 25 28 32 38 30 30 18 20 15 15 17 18 19 20 22 27 34 39 39 40 37 30 30 33 37 38 41 40 36 35 38 42 45 46 46 43 33 33 33 34 35 33 29 26 22 21 22
21 32 47 50 53 40 26 31 16 16 15 13 13 14 15 18 21 27 34 37 39 39 38 33 28 28 33 36 35 31 32 36 40 43 45 47 41 34 34 33 34 36 37 33 29 25 25 25 26
22 28 39 48 53 28 32 33 18 15 14 14 15 15 17 18 22 28 35 37 37 37 34 29 26 28 29 27 27 30 36 38 42 44 45 39 34 33 34 35 36 36 37 32 29 29 30 33 34
23 36 20 36 41 49 36 29 22 18 16 16 16 17 18 24 26 30 37 40 41 39 32 28 23 21 22 24 27 30 36 39 43 44 37 33 32 34 37 38 40 42 39 37 36 36 39 43 45
25 17 37 43 49 52 37 34 26 23 21 18 19 20 22 25 30 34 40 43 44 42 35 28 23 19 21 25 29 32 34 38 38 38 36 34 37 41 44 47 47 44 47 48 47 47 52 53 54
32 36 35 35 44 34 35 30 24 22 22 20 21 20 21 26 29 34 41 46 48 46 37 30 24 21 25 29 33 33 34 35 37 38 37 39 45 49 51 54 55 57 56 59 56 54 57 58 60
25 27 30 37 42 42 44 28 26 26 24 24 25 24 25 27 34 39 44 47 51 47 40 34 26 23 27 32 34 35 37 38 38 40 44 48 51 56 60 63 66 67 68 68 65 65 70 73 69